Main page
METAR-TAF:

METAR-TAF

Airports :

Abadeh, Iran

Abadeh Airport

latitude: 31-11N, longitude: 052-40E, elevation: 2004 m

Current weather observation

The report was made 54 minutes ago, at 03:55 UTC
Wind 4 kt from the West/Northwest
Temperature 17°C
Humidity 17%
Pressure 1022 hPa
Visibility 10 km or more
no clouds below 1500 m and no cumulonimbus

METAR: OISA 240355Z 30004KT CAVOK 17/M08 Q1022

Time: 09:19 (04:49 UTC)


TAF: missing

Weather observations and forecasts of more than 4000 airports (METAR and TAF reports).

The available stations are represented by yellow and red dots on the map.

Hover mouse over dot to see the name of the station.

Then click to see weather observations and forecasts.

To change the map : click on the green buttons with a black cross to zoom in, on the green button with a dash to zoom out, or on the green arrows for adjacent maps.


METAR-TAF: